Regional Weather Roundup
Issued by NWS

Home | Current Version | Previous Version | Text Only | Print | Product List | Glossary On
Versions: 1 2 3 4 5 6 7 8 9 10 11 12 13 14 15 16 17 18 19 20 21 22 23 24 25 26 27 28 29 30 31 32 33 34 35 36 37 38 39 40 41 42 43 44 45 46 47 48 49 50
000
ASUS43 KMKX 280721
RWRWI

WISCONSIN REGIONAL WEATHER ROUNDUP
NATIONAL WEATHER SERVICE MILWAUKEE/SULLIVAN WI
200 AM CDT TUE MAR 28 2017

NOTE: "FAIR" INDICATES FEW OR NO CLOUDS BELOW 12,000 FEET WITH NO
SIGNIFICANT WEATHER AND/OR OBSTRUCTIONS TO VISIBILITY.

WIZ001-002-006>008-014>016-023>028-280800-
NORTHWEST WISCONSIN

CITY           SKY/WX    TMP DP  RH WIND       PRES   REMARKS
SUPERIOR ARPT  CLEAR     26  26  99 CALM      30.08R
ASHLAND        CLEAR     29  28  96 SW5       30.07R WCI  24
HAYWARD        CLEAR     28  23  81 CALM      30.06R
SIREN          CLEAR     29  27  90 CALM      30.06S
CUMBERLAND     CLEAR     32  28  86 CALM      30.05S
RICE LAKE      CLEAR     30  29  98 CALM      30.06S
CHETEK         CLEAR     29  29  99 CALM      30.05S
LADYSMITH      CLEAR     30  28  91 CALM      30.06R
EAU CLAIRE     PTCLDY    30  29  96 CALM      30.05R
MENOMONIE      CLEAR     32  32  99 CALM      30.05S FOG
NEW RICHMOND   CLEAR     32  32 100 CALM      30.05R FOG
OSCEOLA        CLEAR     32  32 100 SE3       30.07S
$$

WIZ003>005-009-010-017-018-280800-
NORTH CENTRAL WISCONSIN

CITY           SKY/WX    TMP DP  RH WIND       PRES   REMARKS
MANITOWISH WTR CLEAR     25  25 100 CALM      30.04R
ARBOR VITAE    CLEAR     29  28  96 CALM      30.03R FOG
WOODRUFF       CLEAR     29  28  96 CALM      30.03R FOG
RHINELANDER    FOG       27  26  96 CALM      30.04R VSB 1/2
EAGLE RIVER    FOG       26  26 100 CALM      30.03R VSB 1
LAND O LAKES   CLEAR     26  26  99 CALM      30.05R
PHILLIPS       CLEAR     25  25  99 CALM      30.04R
TOMAHAWK       CLEAR     24  23  96 CALM      30.05R
MEDFORD        CLEAR     30  29  99 CALM      30.03S
MERRILL        CLEAR     26  26 100 CALM      30.05S FOG
$$

WIZ029-030-035-036-043>047-280800-
CENTRAL WISCONSIN

CITY           SKY/WX    TMP DP  RH WIND       PRES   REMARKS
WAUSAU         CLEAR     30  30 100 CALM      30.03R
MOSINEE        MOCLDY    36  36 100 N3        30.05R
MARSHFIELD     PTCLDY    33  31  92 N3        30.03R
STEVENS POINT  CLOUDY    37  37 100 N3        30.05R
WAUPACA        CLOUDY    41  40  97 N3        30.05R
WAUTOMA        CLOUDY    41  39  93 CALM      30.05R
WISC RAPIDS    CLOUDY    40  39  97 CALM      30.06R
CAMP DOUGLAS   CLOUDY    39  39 100 CALM      30.04R
$$

WIZ011>013-019>022-031-037>040-048>050-280800-
NORTHEAST WISCONSIN

CITY           SKY/WX    TMP DP  RH WIND       PRES   REMARKS
ANTIGO         CLEAR     29  29 100 CALM      30.04R FOG
SHAWANO        MOCLDY    39  37  91 CALM      30.05R
OCONTO         CLOUDY    29  29  99 CALM      30.04S VSB 1/2
STURGEON BAY   CLOUDY    36  35  96 NW3       30.01R
GREEN BAY      CLOUDY    38  37  97 CALM      30.04R
MANITOWOC      CLOUDY    38  36  92 CALM      30.04R
APPLETON       CLOUDY    37  37 100 NW3       30.02R
CLINTONVILLE   CLOUDY    37  37 100 N3        30.04R
OSHKOSH        CLOUDY    39  37  92 CALM      30.03R
$$

WIZ032>034-041-042-053>061-280800-
SOUTHWEST WISCONSIN

CITY           SKY/WX    TMP DP  RH WIND       PRES   REMARKS
LA CROSSE      CLEAR     38  36  92 N5        30.04S WCI  34
SPARTA         CLOUDY    39  38  95 N3        30.06R
VIROQUA        CLOUDY    41  41  99 CALM      30.03R
BOSCOBEL       CLOUDY    46  43  89 N3        30.03R
PRAIRIE DU CHI CLOUDY    45  42  91 N5        30.02S
PLATTEVILLE    MOCLDY    45  45 100 CALM      30.02R
$$

WIZ056-057-062-063-064-067-068-280800-
SOUTH CENTRAL WISCONSIN

CITY           SKY/WX    TMP DP  RH WIND       PRES   REMARKS
REEDSBURG      CLOUDY    42  42 100 CALM      30.03R FOG
BARABOO/DELLS  CLOUDY    41  40  97 NE5       30.04R FOG
LONE ROCK      CLOUDY    46  42  86 N8        30.03R FOG
MINERAL POINT  CLOUDY    45  45 100 CALM      30.01R FOG
MADISON        CLOUDY    42  41  96 N5        30.01S FOG
MIDDLETON      CLOUDY    44  44 100 NE5       30.02R
WATERTOWN      CLOUDY    40  40 100 N5        30.01S FOG
MONROE         CLOUDY    43  43 100 NE7       29.99S FOG
JANESVILLE     CLOUDY    43  43 100 E5        30.00R FOG
$$

WIZ051-052-058>065-066-070>072-280800-
SOUTHEAST WISCONSIN

CITY           SKY/WX    TMP DP  RH WIND       PRES   REMARKS
MILWAUKEE      CLOUDY    40  34  79 N9        30.02R WCI  34
WAUKESHA       CLOUDY    36  34  93 N5        30.02R FOG     WCI  32
MILWAUKEE/TIMM CLOUDY    37  34  87 N5        30.03R WCI  34
RACINE         CLOUDY    38  34  85 N10       30.02S WCI  31
KENOSHA        CLOUDY    39  36  89 N7        30.00S WCI  34
FOND DU LAC    CLOUDY    40  35  83 CALM      30.03R
SHEBOYGAN      CLOUDY    38  35  89 N3        30.02S
WEST BEND      CLOUDY    37  36  93 N5        30.01S WCI  34
JUNEAU         CLOUDY    39  37  93 CALM      30.03R FOG
$$

LSZ147-162-280800-
LAKE SUPERIOR

STATION/POSITION TIME  TEMP    WIND        PRES    WAVE
                       AIR SEA DIR/SP/G            HT/PER
                 (UTC) (F)     (DEG/KT/KT) (MB)    (FT/S)
DEVILS ISLAND    0700   37        CALM     1018.8S
PORT WING        0640   27     150/  3/  3 1018.3S
SAXON HARBOR     0640   27     200/  3/  4 1017.9R
$$

LMZ867-665-643>646-280800-
LAKE MICHIGAN

STATION/POSITION TIME  TEMP    WIND        PRES    WAVE
                       AIR SEA DIR/SP/G            HT/PER
                 (UTC) (F)     (DEG/KT/KT) (MB)    (FT/S)
CHAMBERS ISLAND  0640   33     320/  4/  6 1016.9R
NORTHPORT PIER   0640   34     300/  4/  5 1016.9R
SISTER BAY       0606   34     350/  6/  6   N/A
KEWAUNEE LAKESHO 0654   38     310/  3/  5 1016.5R
SHEBOYGAN LAKESH 0700   38     340/  5/  6 1017.0S
PORT WASHINGTON  0640   39     330/  5/  6 1017.6S
MILWAUKEE LAKESH 0700   39     360/ 10/ 12   N/A
KENOSHA   LAKESH 0700   38      10/ 11/ 13 1016.3
$$

TC  - TEMPERATURE IN CELSIUS
VSB - VISIBILITY IN STATUTE MILES
WCI - WIND CHILL INDEX
HX  - HEAT INDEX




USA.gov is the U.S. government's official web portal to all federal, state and local government web resources and services.